Terug naar catalogus

OSCAR 22

UOSAT 5

ActiefAmateurradioSSO
NORAD 21575·PAYLOAD·🇬🇧 United Kingdom

Gelanceerd Jul 17, 1991 vanaf Guiana Space Centre

Loading…

Volgende Passages (komende 24 uur)

TLE

VersSource: Space-Track

Epoch: Sep 14, 2026, 02:36 UTC

1 21575U 91050B   26257.10889252  .00000127  00000-0  51277-4 0  9998
2 21575  98.3419 323.6788 0005888 265.5368  94.5150 14.42402761847360

Volg OSCAR 22 in realtime met AllMySat

Download on the App Store